Weather History for KLHQ - November, 2013

Change the Weather History Date:

Monday, November 18, 2013

  Actual Average Record
Temperature  
Mean Temperature 45 °F -  
Max Temperature 51 °F 51 °F 75 °F (1958)
Min Temperature 37 °F 32 °F 11 °F (1959)
Degree Days  
Heating Degree Days 20    
Moisture  
Dew Point 34 °F    
Average Humidity 64    
Maximum Humidity 82    
Minimum Humidity 46    
Precipitation  
Precipitation 0.00 in - - ()
Sea Level Pressure  
Sea Level Pressure 29.96 in    
Wind  
Wind Speed 13 mph (West)    
Max Wind Speed 23 mph    
Max Gust Speed 32 mph    
Visibility 9 miles    
Events      
Averages and records for this station are not official NWS values.
T = Trace of Precipitation, MM = Missing Value Source: NWS Daily Summary

Daily Weather History Graph

Daily Weather History Graph

Search for Another Location

Airport or City:

Trip Planner

Search our weather history database for the weather conditions in past years. The results will help you decide how hot, cold, wet, or windy it might be!

Date:

Astronomy

Nov. 18, 2013 Rise Set
Actual Time 7:18 AM EST 5:12 PM EST
Civil Twilight 6:49 AM EST 5:41 PM EST
Nautical Twilight 6:16 AM EST 6:14 PM EST
Astronomical Twilight 5:44 AM EST 6:46 PM EST
Moon 6:13 PM EST (11/18) 8:06 AM EST (11/18)
Length of Visible Light 10h 51m
Length of Day
9h 53m
Full, 99% of the Moon is Illuminated
Nov 18
Full
Nov 25
Last Quarter
Dec 2
New
Dec 9
First Quarter
Dec 17
Full

Hourly Weather History & Observations

Time (EST) Temp. Windchill Dew Point Humidity Pressure Visibility Wind Dir Wind Speed Gust Speed Precip Events Conditions
12:53 AM 50.0 °F - 39.0 °F 66% 29.76 in 10.0 mi WSW 12.7 mph 23.0 mph N/A   Clear
1:53 AM 48.9 °F - 37.9 °F 66% 29.78 in 10.0 mi WSW 12.7 mph - N/A   Clear
2:53 AM 46.9 °F - 37.9 °F 71% 29.81 in 10.0 mi WSW 9.2 mph 17.3 mph N/A   Clear
3:53 AM 46.0 °F 42.5 °F 39.0 °F 76% 29.83 in 10.0 mi WSW 6.9 mph - N/A   Clear
4:53 AM 46.0 °F 39.3 °F 37.9 °F 73% 29.85 in 10.0 mi West 16.1 mph 24.2 mph N/A   Clear
5:53 AM 44.1 °F 37.1 °F 37.0 °F 76% 29.87 in 10.0 mi West 15.0 mph 20.7 mph N/A   Clear
6:53 AM 42.1 °F 36.6 °F 37.0 °F 82% 29.88 in 10.0 mi WSW 9.2 mph - N/A   Clear
7:53 AM 42.1 °F 36.1 °F 36.0 °F 79% 29.90 in 10.0 mi SW 10.4 mph - N/A   Clear
8:53 AM 45.0 °F 39.3 °F 37.0 °F 74% 29.90 in 10.0 mi WSW 11.5 mph - N/A   Clear
9:53 AM 46.9 °F - 37.9 °F 71% 29.91 in 10.0 mi WSW 13.8 mph 25.3 mph N/A   Clear
10:53 AM 48.0 °F - 37.0 °F 66% 29.92 in 10.0 mi West 21.9 mph 28.8 mph N/A   Clear
11:53 AM 50.0 °F - 36.0 °F 59% 29.93 in 10.0 mi West 17.3 mph 27.6 mph N/A   Partly Cloudy
12:51 PM 50.0 °F - 33.8 °F 54% 29.93 in 2.0 mi West 13.8 mph 28.8 mph N/A   Haze
12:53 PM 48.9 °F - 34.0 °F 56% 29.93 in 2.0 mi West 19.6 mph 28.8 mph N/A   Haze
1:05 PM 50.0 °F - 33.8 °F 54% 29.93 in 5.0 mi West 23.0 mph 32.2 mph N/A   Haze
1:53 PM 51.1 °F - 33.1 °F 50% 29.94 in 10.0 mi West 17.3 mph 27.6 mph N/A   Partly Cloudy
2:53 PM 48.9 °F - 30.0 °F 48% 29.97 in 10.0 mi West 15.0 mph 27.6 mph N/A   Partly Cloudy
3:53 PM 50.0 °F - 30.0 °F 46% 29.99 in 10.0 mi WNW 12.7 mph 23.0 mph N/A   Scattered Clouds
4:53 PM 46.9 °F - 30.0 °F 52% 30.02 in 10.0 mi West 8.1 mph 19.6 mph N/A   Clear
5:53 PM 46.0 °F 41.0 °F 30.0 °F 54% 30.05 in 10.0 mi WNW 10.4 mph 21.9 mph N/A   Partly Cloudy
6:53 PM 43.0 °F 37.7 °F 30.0 °F 60% 30.07 in 10.0 mi West 9.2 mph - N/A   Clear
7:53 PM 42.1 °F 36.6 °F 30.0 °F 62% 30.09 in 10.0 mi WNW 9.2 mph - N/A   Clear
8:53 PM 39.9 °F 33.9 °F 30.9 °F 70% 30.11 in 10.0 mi NW 9.2 mph - N/A   Clear
9:53 PM 39.0 °F 31.0 °F 28.9 °F 67% 30.14 in 10.0 mi NNW 13.8 mph - N/A   Clear
10:53 PM 39.0 °F 32.3 °F 28.9 °F 67% 30.16 in 10.0 mi NW 10.4 mph - N/A   Overcast
11:53 PM 37.0 °F 28.9 °F 25.0 °F 62% 30.17 in 10.0 mi NW 12.7 mph 20.7 mph N/A   Scattered Clouds